QPF
0.03 0.04 0.07 0.09 0.07 0.07 0.07 0.08 0.11 0.10 0.06 0.06 0.06 0.05 0.04 0.04 0.04 0.05 0.07 0.07 0.04 0.05 0.09 0.13 0.14 0.11 0.12 0.12 0.11 0.12 0.12 0.15 0.15 0.10 0.07 0.05 0.05 0.05 0.05 0.05 0.04 0.03 0.04
0.02 0.03 0.07 0.09 0.08 0.08 0.08 0.11 0.12 0.10 0.07 0.06 0.05 0.04 0.04 0.04 0.06 0.07 0.06 0.06 0.05 0.05 0.07 0.14 0.20 0.17 0.17 0.16 0.15 0.17 0.15 0.16 0.14 0.11 0.08 0.06 0.05 0.06 0.06 0.05 0.05 0.05 0.05
0.02 0.02 0.05 0.08 0.08 0.08 0.10 0.11 0.08 0.08 0.05 0.05 0.06 0.04 0.03 0.03 0.04 0.06 0.07 0.06 0.04 0.04 0.05 0.08 0.21 0.27 0.30 0.23 0.18 0.18 0.15 0.12 0.11 0.10 0.08 0.07 0.06 0.06 0.07 0.06 0.05 0.04 0.05
0.01 0.02 0.05 0.08 0.09 0.10 0.10 0.11 0.10 0.08 0.05 0.05 0.05 0.04 0.03 0.03 0.02 0.04 0.07 0.08 0.06 0.05 0.05 0.07 0.21 0.31 0.32 0.28 0.21 0.17 0.11 0.07 0.06 0.07 0.10 0.07 0.09 0.08 0.09 0.08 0.06 0.05 0.06
0.01 0.01 0.04 0.05 0.07 0.09 0.09 0.11 0.11 0.09 0.06 0.04 0.04 0.03 0.03 0.03 0.02 0.03 0.06 0.08 0.05 0.03 0.03 0.04 0.12 0.17 0.24 0.25 0.19 0.13 0.07 0.06 0.05 0.05 0.06 0.08 0.11 0.10 0.10 0.10 0.07 0.06 0.06
0.01 0.01 0.03 0.04 0.05 0.06 0.05 0.04 0.04 0.05 0.05 0.05 0.04 0.03 0.04 0.04 0.03 0.04 0.06 0.06 0.05 0.04 0.03 0.03 0.06 0.11 0.15 0.16 0.15 0.10 0.06 0.06 0.03 0.02 0.03 0.06 0.10 0.09 0.10 0.10 0.07 0.06 0.06
0.01 0.01 0.01 0.03 0.03 0.04 0.04 0.03 0.03 0.02 0.03 0.04 0.05 0.04 0.04 0.04 0.03 0.05 0.05 0.05 0.04 0.04 0.03 0.03 0.03 0.05 0.10 0.10 0.10 0.07 0.05 0.05 0.03 0.02 0.04 0.06 0.08 0.08 0.09 0.09 0.08 0.06 0.05
0.01 0.01 0.02 0.02 0.03 0.03 0.04 0.04 0.04 0.03 0.04 0.04 0.04 0.03 0.03 0.03 0.04 0.05 0.05 0.05 0.05 0.04 0.04 0.03 0.04 0.05 0.07 0.07 0.07 0.05 0.04 0.03 0.03 0.03 0.05 0.07 0.08 0.07 0.08 0.08 0.08 0.07 0.07
0.00 0.01 0.01 0.01 0.01 0.02 0.03 0.04 0.05 0.06 0.06 0.05 0.03 0.02 0.02 0.02 0.04 0.04 0.04 0.06 0.07 0.09 0.07 0.05 0.05 0.05 0.06 0.06 0.05 0.04 0.03 0.02 0.03 0.05 0.05 0.08 0.08 0.06 0.06 0.07 0.09 0.07 0.06
0.01 0.01 0.00 0.00 0.01 0.01 0.01 0.02 0.04 0.06 0.07 0.06 0.04 0.03 0.03 0.03 0.04 0.04 0.04 0.05 0.07 0.13 0.15 0.13 0.07 0.06 0.05 0.05 0.05 0.04 0.02 0.02 0.03 0.07 0.10 0.11 0.09 0.07 0.04 0.05 0.08 0.08 0.05
0.01 0.01 0.00 0.00 0.00 0.01 0.02 0.01 0.03 0.05 0.06 0.05 0.04 0.03 0.03 0.03 0.04 0.04 0.04 0.04 0.04 0.07 0.14 0.18 0.14 0.05 0.03 0.04 0.04 0.02 0.01 0.02 0.03 0.06 0.10 0.13 0.11 0.08 0.06 0.05 0.07 0.07 0.05
0.02 0.02 0.01 0.00 0.00 0.01 0.01 0.01 0.02 0.03 0.03 0.03 0.03 0.03 0.02 0.02 0.02 0.02 0.02 0.03 0.04 0.05 0.05 0.08 0.12 0.08 0.04 0.03 0.02 0.01 0.01 0.02 0.02 0.05 0.11 0.13 0.11 0.09 0.08 0.07 0.07 0.07 0.05
0.02 0.02 0.02 0.01 0.00 0.01 0.01 0.01 0.02 0.02 0.02 0.01 0.02 0.02 0.01 0.01 0.01 0.01 0.01 0.01 0.02 0.02 0.02 0.02 0.03 0.06 0.07 0.05 0.03 0.02 0.01 0.02 0.03 0.07 0.11 0.11 0.10 0.10 0.09 0.07 0.06 0.06 0.05
0.01 0.01 0.02 0.01 0.01 0.01 0.01 0.01 0.02 0.02 0.02 0.01 0.01 0.01 0.01 0.01 0.01 0.01 0.02 0.02 0.01 0.01 0.02 0.02 0.02 0.03 0.04 0.05 0.04 0.03 0.03 0.02 0.02 0.05 0.07 0.09 0.11 0.12 0.12 0.10 0.07 0.06 0.06
0.01 0.01 0.02 0.02 0.01 0.02 0.02 0.03 0.03 0.03 0.02 0.02 0.03 0.01 0.01 0.01 0.01 0.01 0.01 0.02 0.02 0.01 0.01 0.01 0.02 0.03 0.03 0.03 0.03 0.05 0.04 0.03 0.02 0.03 0.04 0.07 0.09 0.12 0.14 0.12 0.08 0.08 0.08
0.01 0.02 0.02 0.02 0.03 0.02 0.03 0.04 0.03 0.03 0.03 0.03 0.03 0.02 0.01 0.01 0.01 0.00 0.01 0.01 0.01 0.01 0.01 0.01 0.01 0.02 0.02 0.03 0.04 0.05 0.05 0.03 0.03 0.04 0.04 0.03 0.03 0.05 0.07 0.09 0.09 0.09 0.09
0.00 0.01 0.02 0.02 0.02 0.04 0.04 0.03 0.03 0.02 0.02 0.03 0.04 0.04 0.02 0.01 0.01 0.01 0.01 0.01 0.01 0.01 0.01 0.01 0.01 0.01 0.02 0.02 0.03 0.04 0.04 0.02 0.02 0.03 0.03 0.02 0.02 0.03 0.05 0.06 0.07 0.07 0.07
0.00 0.00 0.01 0.01 0.03 0.03 0.04 0.03 0.03 0.02 0.02 0.03 0.04 0.06 0.04 0.02 0.01 0.01 0.01 0.01 0.01 0.01 0.02 0.02 0.02 0.02 0.02 0.02 0.03 0.03 0.02 0.02 0.02 0.02 0.02 0.02 0.02 0.03 0.05 0.06 0.07 0.07 0.09
0.00 0.00 0.00 0.01 0.02 0.02 0.02 0.02 0.02 0.01 0.02 0.02 0.02 0.04 0.03 0.02 0.01 0.01 0.01 0.01 0.01 0.02 0.03 0.03 0.03 0.03 0.03 0.03 0.03 0.02 0.03 0.03 0.03 0.02 0.02 0.02 0.02 0.03 0.03 0.03 0.05 0.06 0.07
0.00 0.00 0.00 0.00 0.01 0.01 0.01 0.01 0.01 0.01 0.01 0.01 0.02 0.03 0.04 0.03 0.02 0.01 0.01 0.01 0.01 0.02 0.02 0.03 0.04 0.03 0.03 0.02 0.03 0.02 0.02 0.02 0.02 0.03 0.02 0.02 0.02 0.02 0.02 0.02 0.03 0.04 0.05
0.00 0.00 0.00 0.00 0.01 0.00 0.00 0.01 0.01 0.01 0.02 0.01 0.02 0.03 0.04 0.03 0.03 0.02 0.01 0.01 0.01 0.02 0.03 0.04 0.03 0.02 0.01 0.02 0.02 0.01 0.01 0.01 0.01 0.01 0.02 0.02 0.01 0.01 0.01 0.01 0.02 0.03 0.04
0.00 0.00 0.00 0.00 0.00 0.00 0.00 0.01 0.01 0.02 0.03 0.02 0.02 0.03 0.05 0.04 0.03 0.02 0.01 0.00 0.01 0.02 0.02 0.02 0.02 0.02 0.01 0.02 0.02 0.02 0.02 0.02 0.01 0.01 0.01 0.01 0.00 0.00 0.00 0.00 0.01 0.01 0.02
0.00 0.00 0.00 0.00 0.00 0.00 0.00 0.00 0.01 0.01 0.01 0.03 0.03 0.03 0.05 0.04 0.03 0.02 0.01 0.01 0.01 0.01 0.01 0.01 0.02 0.04 0.03 0.02 0.02 0.02 0.02 0.02 0.02 0.01 0.01 0.00 0.00 0.00 0.00 0.01 0.00 0.00 0.01
0.00 0.00 0.00 0.00 0.00 0.00 0.00 0.01 0.01 0.01 0.02 0.02 0.02 0.02 0.04 0.05 0.04 0.03 0.02 0.02 0.01 0.01 0.01 0.01 0.01 0.02 0.02 0.01 0.01 0.01 0.01 0.02 0.02 0.01 0.01 0.00 0.00 0.00 0.01 0.00 0.00 0.00 0.01
0.01 0.01 0.00 0.00 0.00 0.00 0.01 0.01 0.01 0.01 0.01 0.01 0.01 0.02 0.03 0.06 0.06 0.04 0.03 0.02 0.02 0.01 0.01 0.01 0.01 0.01 0.02 0.01 0.01 0.01 0.01 0.01 0.01 0.01 0.01 0.01 0.00 0.00 0.01 0.00 0.00 0.00 0.01
0.01 0.01 0.01 0.01 0.00 0.00 0.00 0.01 0.01 0.02 0.02 0.01 0.01 0.02 0.03 0.03 0.05 0.05 0.04 0.03 0.02 0.01 0.01 0.01 0.01 0.02 0.01 0.01 0.01 0.01 0.01 0.01 0.02 0.01 0.01 0.01 0.01 0.01 0.01 0.00 0.01 0.01 0.01
MSLP
1013.61 1013.50 1013.45 1013.47 1013.53 1013.62 1013.69 1013.72 1013.70 1013.63 1013.54 1013.45 1013.39 1013.38 1013.42 1013.49 1013.57 1013.63 1013.65 1013.63 1013.59 1013.57 1013.59 1013.69 1013.88 1014.16 1014.50 1014.85 1015.18 1015.43 1015.60 1015.67 1015.66 1015.61 1015.55 1015.49 1015.47 1015.48 1015.52 1015.58 1015.64 1015.72 1015.79
1013.67 1013.61 1013.62 1013.70 1013.83 1013.96 1014.06 1014.10 1014.07 1013.97 1013.85 1013.73 1013.65 1013.63 1013.67 1013.75 1013.84 1013.90 1013.92 1013.89 1013.82 1013.77 1013.76 1013.83 1014.00 1014.27 1014.59 1014.94 1015.26 1015.52 1015.69 1015.77 1015.77 1015.73 1015.68 1015.64 1015.63 1015.65 1015.70 1015.76 1015.84 1015.91 1016.00
1013.72 1013.73 1013.80 1013.94 1014.12 1014.30 1014.43 1014.49 1014.47 1014.36 1014.22 1014.08 1013.98 1013.94 1013.97 1014.05 1014.13 1014.19 1014.20 1014.16 1014.08 1014.00 1013.97 1014.01 1014.15 1014.38 1014.69 1015.01 1015.31 1015.55 1015.71 1015.79 1015.81 1015.78 1015.75 1015.73 1015.74 1015.78 1015.84 1015.91 1015.99 1016.08 1016.17
1013.78 1013.84 1013.97 1014.16 1014.40 1014.63 1014.80 1014.89 1014.88 1014.78 1014.63 1014.48 1014.37 1014.32 1014.34 1014.40 1014.47 1014.53 1014.53 1014.47 1014.38 1014.29 1014.23 1014.25 1014.36 1014.56 1014.82 1015.10 1015.37 1015.58 1015.72 1015.79 1015.81 1015.80 1015.78 1015.79 1015.81 1015.87 1015.94 1016.02 1016.10 1016.19 1016.29
1013.82 1013.92 1014.09 1014.33 1014.62 1014.90 1015.12 1015.25 1015.27 1015.19 1015.05 1014.90 1014.79 1014.73 1014.74 1014.79 1014.85 1014.90 1014.89 1014.83 1014.74 1014.64 1014.57 1014.57 1014.65 1014.81 1015.02 1015.26 1015.48 1015.65 1015.76 1015.81 1015.82 1015.81 1015.81 1015.82 1015.86 1015.93 1016.00 1016.09 1016.18 1016.27 1016.37
1013.84 1013.95 1014.15 1014.43 1014.76 1015.09 1015.36 1015.53 1015.59 1015.55 1015.44 1015.31 1015.20 1015.14 1015.14 1015.19 1015.24 1015.28 1015.27 1015.21 1015.12 1015.02 1014.96 1014.94 1015.00 1015.13 1015.30 1015.48 1015.65 1015.77 1015.84 1015.86 1015.86 1015.84 1015.84 1015.87 1015.91 1015.98 1016.06 1016.14 1016.22 1016.31 1016.42
1013.81 1013.93 1014.15 1014.46 1014.82 1015.18 1015.50 1015.72 1015.82 1015.82 1015.75 1015.64 1015.56 1015.51 1015.51 1015.55 1015.60 1015.63 1015.62 1015.57 1015.49 1015.41 1015.35 1015.34 1015.38 1015.48 1015.61 1015.75 1015.86 1015.93 1015.96 1015.95 1015.93 1015.91 1015.91 1015.94 1015.99 1016.05 1016.12 1016.20 1016.28 1016.36 1016.47
1013.73 1013.85 1014.07 1014.40 1014.79 1015.18 1015.53 1015.78 1015.93 1015.97 1015.94 1015.87 1015.81 1015.78 1015.79 1015.84 1015.88 1015.92 1015.91 1015.87 1015.80 1015.74 1015.69 1015.68 1015.73 1015.81 1015.91 1016.01 1016.08 1016.11 1016.11 1016.08 1016.04 1016.02 1016.02 1016.05 1016.10 1016.16 1016.23 1016.30 1016.37 1016.45 1016.55
1013.60 1013.71 1013.94 1014.28 1014.68 1015.09 1015.46 1015.74 1015.92 1016.00 1016.00 1015.97 1015.94 1015.94 1015.97 1016.01 1016.07 1016.10 1016.10 1016.07 1016.01 1015.96 1015.93 1015.94 1015.98 1016.06 1016.15 1016.22 1016.27 1016.27 1016.25 1016.21 1016.17 1016.15 1016.16 1016.20 1016.26 1016.34 1016.41 1016.47 1016.53 1016.60 1016.68
1013.42 1013.54 1013.78 1014.12 1014.53 1014.94 1015.31 1015.61 1015.80 1015.91 1015.95 1015.95 1015.96 1015.98 1016.02 1016.08 1016.14 1016.18 1016.18 1016.16 1016.11 1016.08 1016.06 1016.08 1016.14 1016.21 1016.30 1016.36 1016.40 1016.40 1016.37 1016.33 1016.30 1016.30 1016.33 1016.40 1016.48 1016.57 1016.65 1016.72 1016.78 1016.83 1016.89
1013.20 1013.34 1013.59 1013.94 1014.34 1014.75 1015.11 1015.40 1015.61 1015.73 1015.79 1015.83 1015.86 1015.92 1015.99 1016.06 1016.13 1016.17 1016.18 1016.16 1016.13 1016.11 1016.10 1016.14 1016.20 1016.29 1016.37 1016.44 1016.48 1016.49 1016.47 1016.45 1016.44 1016.47 1016.53 1016.63 1016.74 1016.86 1016.96 1017.04 1017.09 1017.13 1017.17
1012.95 1013.11 1013.38 1013.73 1014.13 1014.52 1014.87 1015.15 1015.35 1015.49 1015.57 1015.64 1015.71 1015.79 1015.89 1015.99 1016.07 1016.12 1016.14 1016.14 1016.11 1016.10 1016.11 1016.15 1016.23 1016.32 1016.42 1016.49 1016.54 1016.57 1016.57 1016.57 1016.60 1016.66 1016.75 1016.89 1017.03 1017.18 1017.30 1017.39 1017.44 1017.46 1017.47
1012.66 1012.86 1013.14 1013.50 1013.88 1014.26 1014.59 1014.87 1015.07 1015.21 1015.32 1015.42 1015.52 1015.64 1015.77 1015.90 1016.01 1016.08 1016.12 1016.12 1016.12 1016.12 1016.14 1016.19 1016.28 1016.38 1016.49 1016.58 1016.64 1016.68 1016.71 1016.74 1016.79 1016.87 1017.00 1017.16 1017.34 1017.50 1017.64 1017.74 1017.78 1017.78 1017.75
1012.35 1012.56 1012.85 1013.21 1013.59 1013.95 1014.28 1014.55 1014.76 1014.92 1015.06 1015.19 1015.34 1015.50 1015.67 1015.83 1015.97 1016.08 1016.14 1016.17 1016.19 1016.20 1016.24 1016.31 1016.41 1016.52 1016.64 1016.74 1016.82 1016.87 1016.91 1016.96 1017.03 1017.13 1017.27 1017.44 1017.63 1017.80 1017.94 1018.03 1018.06 1018.03 1017.97
1012.00 1012.21 1012.51 1012.86 1013.23 1013.60 1013.93 1014.21 1014.45 1014.64 1014.82 1015.00 1015.19 1015.40 1015.61 1015.81 1015.99 1016.13 1016.23 1016.30 1016.34 1016.39 1016.44 1016.53 1016.64 1016.76 1016.89 1017.00 1017.09 1017.15 1017.20 1017.25 1017.32 1017.42 1017.55 1017.71 1017.88 1018.04 1018.17 1018.24 1018.25 1018.20 1018.09
1011.62 1011.82 1012.10 1012.44 1012.82 1013.19 1013.55 1013.87 1014.14 1014.39 1014.62 1014.85 1015.09 1015.34 1015.60 1015.84 1016.06 1016.24 1016.38 1016.49 1016.57 1016.65 1016.73 1016.84 1016.96 1017.10 1017.24 1017.35 1017.45 1017.51 1017.56 1017.60 1017.65 1017.73 1017.83 1017.95 1018.09 1018.22 1018.31 1018.36 1018.33 1018.25 1018.11
1011.25 1011.41 1011.67 1011.99 1012.37 1012.77 1013.16 1013.54 1013.88 1014.19 1014.48 1014.76 1015.05 1015.33 1015.62 1015.90 1016.15 1016.37 1016.55 1016.70 1016.83 1016.94 1017.06 1017.19 1017.33 1017.48 1017.63 1017.75 1017.85 1017.91 1017.95 1017.97 1017.99 1018.03 1018.09 1018.16 1018.25 1018.33 1018.38 1018.38 1018.32 1018.21 1018.05
1010.93 1011.04 1011.25 1011.56 1011.94 1012.37 1012.82 1013.26 1013.67 1014.05 1014.40 1014.73 1015.05 1015.37 1015.67 1015.97 1016.25 1016.50 1016.72 1016.90 1017.07 1017.22 1017.37 1017.53 1017.69 1017.85 1018.00 1018.13 1018.23 1018.29 1018.32 1018.32 1018.31 1018.30 1018.31 1018.33 1018.36 1018.38 1018.38 1018.34 1018.25 1018.11 1017.93
1010.71 1010.76 1010.92 1011.21 1011.60 1012.06 1012.56 1013.07 1013.55 1014.00 1014.40 1014.77 1015.11 1015.43 1015.74 1016.04 1016.33 1016.59 1016.84 1017.06 1017.26 1017.44 1017.62 1017.80 1017.98 1018.15 1018.31 1018.44 1018.54 1018.60 1018.62 1018.61 1018.57 1018.53 1018.49 1018.45 1018.42 1018.40 1018.35 1018.28 1018.17 1018.01 1017.82
1010.64 1010.63 1010.74 1011.00 1011.39 1011.88 1012.42 1012.99 1013.53 1014.03 1014.47 1014.85 1015.20 1015.51 1015.81 1016.10 1016.38 1016.65 1016.91 1017.15 1017.37 1017.58 1017.78 1017.98 1018.17 1018.35 1018.51 1018.65 1018.75 1018.81 1018.83 1018.80 1018.75 1018.68 1018.61 1018.54 1018.47 1018.40 1018.33 1018.23 1018.10 1017.93 1017.72
1010.75 1010.68 1010.74 1010.97 1011.35 1011.85 1012.42 1013.02 1013.60 1014.13 1014.59 1014.97 1015.30 1015.60 1015.87 1016.13 1016.40 1016.66 1016.93 1017.18 1017.42 1017.65 1017.86 1018.07 1018.26 1018.44 1018.60 1018.74 1018.84 1018.90 1018.92 1018.90 1018.84 1018.77 1018.68 1018.59 1018.51 1018.43 1018.33 1018.22 1018.07 1017.89 1017.66
1011.02 1010.91 1010.93 1011.12 1011.48 1011.97 1012.55 1013.15 1013.74 1014.27 1014.73 1015.10 1015.40 1015.66 1015.90 1016.14 1016.39 1016.64 1016.91 1017.17 1017.42 1017.66 1017.88 1018.08 1018.27 1018.44 1018.60 1018.73 1018.83 1018.89 1018.92 1018.90 1018.86 1018.79 1018.71 1018.64 1018.56 1018.47 1018.38 1018.26 1018.10 1017.89 1017.63
1011.41 1011.27 1011.26 1011.41 1011.73 1012.19 1012.75 1013.33 1013.90 1014.41 1014.84 1015.18 1015.45 1015.68 1015.90 1016.11 1016.35 1016.60 1016.87 1017.14 1017.39 1017.63 1017.85 1018.05 1018.23 1018.38 1018.52 1018.64 1018.74 1018.80 1018.84 1018.84 1018.81 1018.77 1018.72 1018.67 1018.61 1018.55 1018.47 1018.35 1018.18 1017.94 1017.62
1011.84 1011.69 1011.66 1011.77 1012.05 1012.46 1012.96 1013.50 1014.03 1014.50 1014.88 1015.19 1015.44 1015.64 1015.83 1016.04 1016.27 1016.53 1016.80 1017.08 1017.34 1017.58 1017.80 1017.99 1018.15 1018.29 1018.41 1018.51 1018.60 1018.66 1018.70 1018.72 1018.72 1018.71 1018.70 1018.69 1018.67 1018.64 1018.58 1018.47 1018.28 1018.00 1017.61
1012.23 1012.09 1012.04 1012.13 1012.35 1012.70 1013.14 1013.62 1014.08 1014.50 1014.84 1015.11 1015.33 1015.52 1015.70 1015.91 1016.14 1016.41 1016.69 1016.98 1017.25 1017.49 1017.70 1017.88 1018.03 1018.15 1018.25 1018.34 1018.42 1018.48 1018.53 1018.57 1018.60 1018.62 1018.66 1018.69 1018.72 1018.74 1018.70 1018.60 1018.39 1018.06 1017.60
1012.51 1012.40 1012.35 1012.41 1012.59 1012.88 1013.25 1013.65 1014.05 1014.40 1014.70 1014.94 1015.14 1015.32 1015.50 1015.71 1015.95 1016.22 1016.52 1016.81 1017.09 1017.33 1017.54 1017.71 1017.85 1017.96 1018.05 1018.13 1018.20 1018.26 1018.32 1018.37 1018.43 1018.50 1018.58 1018.67 1018.75 1018.80 1018.81 1018.72 1018.51 1018.14 1017.61
Thickness
5753 5754 5751 5752 5752 5753 5754 5754 5754 5755 5755 5756 5756 5757 5758 5759 5760 5760 5761 5761 5762 5763 5763 5764 5765 5765 5766 5766 5766 5766 5765 5765 5765 5765 5766 5766 5766 5766 5766 5767 5769 5770 5768
5752 5752 5749 5750 5750 5751 5751 5752 5752 5752 5752 5753 5754 5754 5755 5756 5757 5757 5758 5758 5759 5759 5760 5760 5761 5762 5762 5763 5763 5763 5762 5762 5762 5763 5763 5763 5764 5764 5764 5765 5766 5767 5766
5750 5750 5749 5747 5748 5749 5749 5749 5749 5749 5749 5750 5751 5751 5752 5753 5754 5754 5755 5755 5756 5756 5757 5757 5758 5758 5759 5759 5759 5759 5759 5759 5759 5760 5761 5763 5762 5762 5762 5762 5763 5763 5763
5748 5748 5747 5745 5745 5746 5746 5746 5746 5746 5746 5747 5747 5748 5749 5749 5750 5751 5752 5752 5752 5753 5753 5754 5754 5755 5755 5755 5755 5755 5756 5756 5756 5757 5760 5761 5761 5759 5759 5759 5760 5760 5760
5746 5745 5743 5742 5742 5742 5743 5743 5743 5743 5743 5744 5744 5745 5745 5746 5747 5748 5748 5748 5749 5749 5750 5751 5751 5751 5751 5751 5751 5752 5752 5752 5753 5755 5757 5757 5757 5755 5756 5756 5756 5757 5757
5743 5742 5740 5738 5739 5739 5739 5739 5740 5740 5740 5740 5741 5741 5742 5742 5743 5744 5744 5744 5745 5745 5746 5747 5747 5747 5747 5747 5747 5747 5748 5749 5751 5753 5754 5754 5754 5752 5752 5753 5753 5754 5754
5741 5740 5738 5735 5735 5735 5736 5736 5736 5736 5736 5737 5737 5737 5738 5739 5739 5740 5740 5740 5741 5741 5742 5742 5743 5742 5742 5742 5743 5743 5744 5745 5749 5750 5750 5750 5749 5748 5749 5749 5750 5750 5751
5738 5737 5735 5732 5732 5732 5732 5732 5733 5733 5733 5733 5733 5734 5734 5734 5735 5736 5736 5736 5737 5737 5737 5738 5738 5738 5738 5738 5738 5739 5740 5742 5745 5747 5746 5746 5744 5744 5745 5745 5746 5747 5747
5735 5735 5734 5734 5732 5730 5729 5729 5729 5729 5730 5729 5730 5729 5730 5730 5731 5731 5732 5732 5732 5733 5733 5733 5733 5734 5733 5734 5734 5735 5736 5737 5741 5742 5743 5742 5740 5740 5741 5741 5742 5743 5744
5733 5733 5732 5732 5731 5731 5729 5726 5726 5726 5726 5726 5726 5726 5726 5727 5727 5727 5728 5727 5728 5728 5728 5728 5729 5729 5729 5729 5730 5730 5732 5735 5737 5738 5738 5737 5736 5736 5737 5738 5738 5739 5740
5729 5730 5730 5729 5729 5728 5728 5725 5724 5723 5723 5723 5724 5723 5724 5726 5726 5725 5723 5723 5723 5723 5723 5723 5724 5724 5725 5725 5725 5726 5729 5733 5733 5733 5732 5731 5731 5732 5733 5733 5734 5735 5735
5726 5727 5727 5727 5726 5726 5725 5724 5723 5723 5722 5723 5723 5722 5723 5722 5722 5721 5718 5718 5719 5719 5719 5719 5720 5721 5723 5724 5723 5724 5727 5728 5729 5729 5727 5726 5726 5727 5728 5729 5730 5730 5730
5725 5724 5724 5724 5723 5723 5722 5721 5721 5720 5719 5720 5720 5720 5719 5719 5719 5718 5718 5717 5717 5716 5718 5717 5719 5719 5720 5720 5720 5721 5722 5723 5724 5723 5722 5721 5722 5723 5723 5724 5725 5725 5726
5722 5721 5721 5721 5721 5720 5719 5718 5717 5717 5717 5717 5717 5717 5716 5716 5716 5715 5715 5714 5714 5714 5714 5715 5715 5716 5716 5716 5717 5717 5717 5718 5718 5717 5715 5715 5717 5718 5719 5719 5720 5721 5721
5718 5719 5719 5719 5718 5717 5716 5715 5715 5713 5714 5713 5712 5713 5713 5713 5712 5712 5711 5710 5710 5710 5710 5710 5711 5711 5711 5711 5711 5711 5712 5712 5712 5713 5712 5711 5711 5712 5713 5714 5715 5716 5717
5717 5717 5717 5716 5715 5714 5713 5712 5712 5711 5710 5709 5708 5709 5709 5708 5708 5707 5708 5706 5706 5706 5706 5706 5707 5705 5706 5706 5705 5706 5706 5707 5707 5707 5708 5707 5706 5707 5708 5709 5710 5711 5712
5717 5716 5714 5714 5713 5711 5710 5709 5707 5707 5707 5706 5705 5705 5704 5704 5704 5704 5704 5703 5702 5702 5702 5701 5701 5701 5701 5700 5700 5700 5701 5701 5702 5703 5704 5704 5704 5703 5703 5704 5705 5706 5707
5715 5713 5711 5710 5709 5708 5706 5705 5704 5703 5702 5701 5701 5700 5700 5700 5699 5699 5698 5698 5697 5697 5697 5696 5696 5695 5695 5695 5695 5695 5696 5696 5697 5698 5699 5699 5700 5700 5700 5699 5700 5701 5702
5712 5710 5709 5707 5705 5704 5702 5701 5700 5700 5698 5697 5697 5696 5695 5695 5695 5694 5693 5693 5693 5692 5692 5692 5692 5691 5690 5689 5690 5690 5691 5691 5691 5692 5694 5694 5694 5695 5695 5695 5695 5696 5697
5708 5707 5706 5703 5701 5700 5698 5697 5695 5694 5693 5692 5691 5690 5690 5690 5690 5689 5688 5688 5688 5687 5686 5686 5685 5685 5684 5684 5686 5685 5686 5686 5687 5687 5688 5689 5689 5690 5691 5692 5692 5692 5692
5703 5702 5701 5699 5697 5695 5693 5692 5690 5689 5688 5687 5686 5685 5685 5684 5684 5684 5684 5684 5683 5682 5681 5681 5681 5680 5679 5681 5681 5680 5682 5682 5682 5681 5682 5683 5684 5685 5686 5686 5688 5688 5689
5699 5698 5697 5695 5693 5691 5688 5688 5686 5684 5683 5682 5680 5679 5680 5680 5680 5680 5679 5679 5678 5677 5677 5676 5675 5674 5675 5676 5676 5675 5674 5675 5675 5677 5676 5677 5679 5680 5681 5681 5682 5683 5684
5695 5694 5692 5690 5688 5686 5684 5682 5680 5678 5677 5676 5674 5674 5674 5674 5674 5674 5675 5674 5673 5673 5672 5671 5671 5669 5669 5670 5672 5670 5668 5668 5668 5670 5671 5671 5672 5673 5675 5675 5676 5677 5678
5692 5690 5688 5686 5683 5680 5678 5676 5673 5670 5669 5668 5669 5669 5669 5669 5669 5669 5668 5668 5669 5668 5668 5667 5667 5666 5665 5665 5665 5665 5666 5665 5662 5662 5665 5667 5667 5667 5668 5669 5669 5670 5671
5689 5685 5683 5680 5677 5674 5672 5669 5667 5665 5664 5664 5663 5663 5664 5664 5663 5663 5662 5663 5663 5663 5663 5662 5662 5661 5661 5660 5660 5660 5660 5660 5661 5658 5657 5658 5660 5662 5662 5663 5663 5664 5665
5684 5680 5677 5674 5671 5669 5666 5664 5662 5659 5659 5658 5657 5657 5658 5658 5657 5657 5657 5657 5658 5658 5658 5657 5657 5656 5656 5656 5656 5656 5655 5654 5654 5654 5653 5653 5653 5656 5656 5657 5658 5657 5658